,,Stat6,,Stat2,,Stat8,,Stat9,,Stat10,,Wind1,,Wind1,
time,status,PA1M_AVG,status,PR1M_SUM,status,RH1M_AVG,status,SR1M_AVG,status,TA1M_AVG,status,W1dAve1m,status,W1sAve1m,
2008-05-25, 00:00:00,VALID,916.72,VALID,0,VALID,100,VALID,-0.118866,VALID,20.2784,VALID,47,VALID,0.51617,
2008-05-25, 00:01:00,VALID,916.707,VALID,0,VALID,100,VALID,-0.101885,VALID,20.2844,VALID,45,VALID,1.29397,
2008-05-25, 00:02:00,VALID,916.716,VALID,0,VALID,100,VALID,-0.118866,VALID,20.3174,VALID,44,VALID,1.07272,
2008-05-25, 00:03:00,VALID,916.704,VALID,0,VALID,100,VALID,-0.118866,VALID,20.3368,VALID,32,VALID,0.880149,
2008-05-25, 00:04:00,VALID,916.696,VALID,0,VALID,100,VALID,-0.101885,VALID,20.3361,VALID,29,VALID,1.20573,
2008-05-25, 00:05:00,VALID,916.667,VALID,0,VALID,100,VALID,-0.0849042,VALID,20.3426,VALID,29,VALID,1.05316,
2008-05-25, 00:06:00,VALID,916.641,VALID,0,VALID,100,VALID,-0.0849042,VALID,20.3558,VALID,18,VALID,1.03817,
2008-05-25, 00:07:00,VALID,916.611,VALID,0,VALID,100,VALID,-0.0679233,VALID,20.372,VALID,12,VALID,0.945508,
2008-05-25, 00:08:00,VALID,916.591,VALID,0,VALID,100,VALID,-0.0169808,VALID,20.364,VALID,11,VALID,1.00642,
2008-05-25, 00:09:00,VALID,916.57,VALID,0,VALID,100,VALID,0,VALID,20.3572,VALID,6,VALID,0.843023,
2008-05-25, 00:10:00,VALID,916.575,VALID,0,VALID,100,VALID,-0.0169808,VALID,20.3473,VALID,13,VALID,0.925409,
2008-05-25, 00:11:00,VALID,916.583,VALID,0,VALID,100,VALID,-0.0169808,VALID,20.3438,VALID,15,VALID,0.940874,
2008-05-25, 00:12:00,VALID,916.588,VALID,0,VALID,100,VALID,-0.0169808,VALID,20.3705,VALID,38,VALID,0.354469,
2008-05-25, 00:13:00,VALID,916.609,VALID,0,VALID,100,VALID,0,VALID,20.3572,VALID,66,VALID,0.259811,
2008-05-25, 00:14:00,VALID,916.618,VALID,0,VALID,100,VALID,0,VALID,20.3378,VALID,82,VALID,0.068314,
2008-05-25, 00:15:00,VALID,916.621,VALID,0,VALID,100,VALID,-0.0339617,VALID,20.3288,VALID,110,VALID,0,
2008-05-25, 00:16:00,VALID,916.612,VALID,0,VALID,100,VALID,0,VALID,20.2993,VALID,125,VALID,0,
2008-05-25, 00:17:00,VALID,916.619,VALID,0,VALID,100,VALID,-0.0169808,VALID,20.2791,VALID,128,VALID,0,
2008-05-25, 00:18:00,VALID,916.606,VALID,0,VALID,100,VALID,0,VALID,20.2694,VALID,134,VALID,0.72923,
2008-05-25, 00:19:00,VALID,916.586,VALID,0,VALID,100,VALID,0,VALID,20.2694,VALID,129,VALID,0.951853,
2008-05-25, 00:20:00,VALID,916.576,VALID,0,VALID,100,VALID,0,VALID,20.2666,VALID,110,VALID,0.435764,
2008-05-25, 00:21:00,VALID,916.572,VALID,0,VALID,100,VALID,0.0169808,VALID,20.2596,VALID,79,VALID,0,
2008-05-25, 00:22:00,VALID,916.554,VALID,0,VALID,100,VALID,0,VALID,20.2537,VALID,82,VALID,0,
2008-05-25, 00:23:00,VALID,916.553,VALID,0,VALID,100,VALID,0.0169808,VALID,20.2369,VALID,82,VALID,0,
2008-05-25, 00:24:00,VALID,916.543,VALID,0,VALID,100,VALID,-0.0169808,VALID,20.2307,VALID,82,VALID,0,
2008-05-25, 00:25:00,VALID,916.538,VALID,0,VALID,100,VALID,0,VALID,20.2177,VALID,82,VALID,0,
2008-05-25, 00:26:00,VALID,916.548,VALID,0,VALID,100,VALID,0,VALID,20.2272,VALID,82,VALID,0,
2008-05-25, 00:27:00,VALID,916.547,VALID,0,VALID,100,VALID,0,VALID,20.2304,VALID,82,VALID,0,
2008-05-25, 00:28:00,VALID,916.552,VALID,0,VALID,100,VALID,0,VALID,20.2339,VALID,68,VALID,0,
2008-05-25, 00:29:00,VALID,916.555,VALID,0,VALID,100,VALID,0.0169808,VALID,20.2272,VALID,37,VALID,0,
2008-05-25, 00:30:00,VALID,916.564,VALID,0,VALID,100,VALID,-0.0339617,VALID,20.2342,VALID,37,VALID,0,
2008-05-25, 00:31:00,VALID,916.575,VALID,0,VALID,100,VALID,-0.0169808,VALID,20.2344,VALID,32,VALID,0,
2008-05-25, 00:32:00,VALID,916.586,VALID,0,VALID,100,VALID,0,VALID,20.2534,VALID,56,VALID,0,
2008-05-25, 00:33:00,VALID,916.582,VALID,0,VALID,100,VALID,0,VALID,20.2631,VALID,50,VALID,0.0130814,
2008-05-25, 00:34:00,VALID,916.591,VALID,0,VALID,100,VALID,-0.0169808,VALID,20.2604,VALID,55,VALID,0,
2008-05-25, 00:35:00,VALID,916.589,VALID,0,VALID,100,VALID,-0.0339617,VALID,20.2766,VALID,55,VALID,0,
2008-05-25, 00:36:00,VALID,916.57,VALID,0,VALID,100,VALID,-0.0169808,VALID,20.2831,VALID,48,VALID,0,
2008-05-25, 00:37:00,VALID,916.552,VALID,0,VALID,100,VALID,0,VALID,20.2859,VALID,57,VALID,0,
2008-05-25, 00:38:00,VALID,916.555,VALID,0,VALID,100,VALID,0,VALID,20.2829,VALID,73,VALID,0,
2008-05-25, 00:39:00,VALID,916.55,VALID,0,VALID,100,VALID,0,VALID,20.2791,VALID,67,VALID,0,
2008-05-25, 00:40:00,VALID,916.536,VALID,0,VALID,100,VALID,0,VALID,20.2631,VALID,67,VALID,0,
2008-05-25, 00:41:00,VALID,916.526,VALID,0,VALID,100,VALID,0,VALID,20.2602,VALID,82,VALID,0,
2008-05-25, 00:42:00,VALID,916.511,VALID,0,VALID,100,VALID,0,VALID,20.2434,VALID,82,VALID,0,
2008-05-25, 00:43:00,VALID,916.521,VALID,0,VALID,100,VALID,0.0169808,VALID,20.2467,VALID,81,VALID,0,
2008-05-25, 00:44:00,VALID,916.512,VALID,0,VALID,100,VALID,0,VALID,20.2502,VALID,81,VALID,0,
2008-05-25, 00:45:00,VALID,916.486,VALID,0,VALID,100,VALID,0.0339617,VALID,20.2269,VALID,81,VALID,0,
2008-05-25, 00:46:00,VALID,916.461,VALID,0,VALID,100,VALID,0,VALID,20.2177,VALID,81,VALID,0,
2008-05-25, 00:47:00,VALID,916.432,VALID,0,VALID,100,VALID,0.0339617,VALID,20.2145,VALID,89,VALID,0,
2008-05-25, 00:48:00,VALID,916.384,VALID,0,VALID,100,VALID,-0.0169808,VALID,20.198,VALID,91,VALID,0,
2008-05-25, 00:49:00,VALID,916.323,VALID,0,VALID,100,VALID,0.0339617,VALID,20.1947,VALID,88,VALID,0,
2008-05-25, 00:50:00,VALID,916.267,VALID,0,VALID,100,VALID,0.0339617,VALID,20.1945,VALID,88,VALID,0,
2008-05-25, 00:51:00,VALID,916.223,VALID,0,VALID,100,VALID,0.0169808,VALID,20.1977,VALID,88,VALID,0,
2008-05-25, 00:52:00,VALID,916.146,VALID,0,VALID,100,VALID,0,VALID,20.2042,VALID,73,VALID,0,
2008-05-25, 00:53:00,VALID,916.089,VALID,0,VALID,100,VALID,-0.0509425,VALID,20.2282,VALID,53,VALID,0,
2008-05-25, 00:54:00,VALID,916.01,VALID,0,VALID,100,VALID,-0.0849042,VALID,20.2152,VALID,342,VALID,0,
2008-05-25, 00:55:00,VALID,915.955,VALID,0,VALID,100,VALID,-0.0849042,VALID,20.2155,VALID,350,VALID,0,
2008-05-25, 00:56:00,VALID,915.902,VALID,0,VALID,100,VALID,-0.101885,VALID,20.2023,VALID,343,VALID,0,
2008-05-25, 00:57:00,VALID,915.853,VALID,0,VALID,100,VALID,-0.0679233,VALID,20.1958,VALID,342,VALID,0,
2008-05-25, 00:58:00,VALID,915.808,VALID,0,VALID,100,VALID,-0.0849042,VALID,20.1865,VALID,342,VALID,0,
2008-05-25, 00:59:00,VALID,915.796,VALID,0,VALID,100,VALID,-0.101885,VALID,20.1898,VALID,342,VALID,0,
2008-05-25, 01:00:00,VALID,915.795,VALID,0,VALID,100,VALID,-0.0679233,VALID,20.193,VALID,342,VALID,0,
2008-05-25, 01:01:00,VALID,915.773,VALID,0,VALID,100,VALID,-0.101885,VALID,20.193,VALID,342,VALID,0,
2008-05-25, 01:02:00,VALID,915.775,VALID,0,VALID,100,VALID,-0.135847,VALID,20.1833,VALID,342,VALID,0,
2008-05-25, 01:03:00,VALID,915.778,VALID,0,VALID,100,VALID,-0.0679233,VALID,20.1636,VALID,342,VALID,0,
2008-05-25, 01:04:00,VALID,915.776,VALID,0,VALID,100,VALID,-0.0679233,VALID,20.1701,VALID,342,VALID,0,
2008-05-25, 01:05:00,VALID,915.771,VALID,0,VALID,100,VALID,-0.101885,VALID,20.1763,VALID,342,VALID,0,
2008-05-25, 01:06:00,VALID,915.765,VALID,0,VALID,100,VALID,-0.0509425,VALID,20.1828,VALID,328,VALID,0.031064,
2008-05-25, 01:07:00,VALID,915.73,VALID,0,VALID,100,VALID,-0.0679233,VALID,20.186,VALID,231,VALID,0.153888,
2008-05-25, 01:08:00,VALID,915.699,VALID,0,VALID,100,VALID,-0.0849042,VALID,20.1893,VALID,233,VALID,0,
2008-05-25, 01:09:00,VALID,915.655,VALID,0,VALID,100,VALID,-0.0679233,VALID,20.199,VALID,241,VALID,0,
2008-05-25, 01:10:00,VALID,915.62,VALID,0,VALID,100,VALID,-0.0849042,VALID,20.212,VALID,241,VALID,0,
2008-05-25, 01:11:00,VALID,915.586,VALID,0,VALID,100,VALID,-0.101885,VALID,20.2087,VALID,241,VALID,0,
2008-05-25, 01:12:00,VALID,915.569,VALID,0,VALID,100,VALID,-0.101885,VALID,20.2157,VALID,241,VALID,0,
2008-05-25, 01:13:00,VALID,915.525,VALID,0,VALID,100,VALID,-0.101885,VALID,20.2315,VALID,241,VALID,0,
2008-05-25, 01:14:00,VALID,915.505,VALID,0,VALID,100,VALID,-0.0679233,VALID,20.2447,VALID,241,VALID,0,
2008-05-25, 01:15:00,VALID,915.482,VALID,0,VALID,100,VALID,-0.0679233,VALID,20.2449,VALID,241,VALID,0,
2008-05-25, 01:16:00,VALID,915.453,VALID,0,VALID,100,VALID,-0.0509425,VALID,20.2449,VALID,241,VALID,0,
2008-05-25, 01:17:00,VALID,915.416,VALID,0,VALID,100,VALID,-0.101885,VALID,20.2447,VALID,241,VALID,0,
2008-05-25, 01:18:00,VALID,915.368,VALID,0,VALID,100,VALID,-0.101885,VALID,20.2417,VALID,241,VALID,0,
2008-05-25, 01:19:00,VALID,915.326,VALID,0,VALID,100,VALID,-0.0849042,VALID,20.2639,VALID,241,VALID,0,
2008-05-25, 01:20:00,VALID,915.288,VALID,0,VALID,100,VALID,-0.101885,VALID,20.2509,VALID,246,VALID,0,
2008-05-25, 01:21:00,VALID,915.256,VALID,0,VALID,100,VALID,-0.0679233,VALID,20.2512,VALID,246,VALID,0,
2008-05-25, 01:22:00,VALID,915.23,VALID,0,VALID,100,VALID,-0.0849042,VALID,20.2417,VALID,246,VALID,0,
2008-05-25, 01:23:00,VALID,915.207,VALID,0,VALID,100,VALID,-0.0849042,VALID,20.235,VALID,215,VALID,0,
2008-05-25, 01:24:00,VALID,915.197,VALID,0,VALID,100,VALID,-0.101885,VALID,20.2449,VALID,214,VALID,0,
2008-05-25, 01:25:00,VALID,915.178,VALID,0,VALID,100,VALID,-0.0849042,VALID,20.2479,VALID,214,VALID,0,
2008-05-25, 01:26:00,VALID,915.14,VALID,0,VALID,100,VALID,-0.101885,VALID,20.2444,VALID,214,VALID,0,
2008-05-25, 01:27:00,VALID,915.098,VALID,0,VALID,100,VALID,-0.0849042,VALID,20.2479,VALID,214,VALID,0,
2008-05-25, 01:28:00,VALID,915.07,VALID,0,VALID,100,VALID,-0.0509425,VALID,20.2444,VALID,214,VALID,0,
2008-05-25, 01:29:00,VALID,915.034,VALID,0,VALID,100,VALID,-0.0509425,VALID,20.2482,VALID,214,VALID,0,
2008-05-25, 01:30:00,VALID,915.003,VALID,0,VALID,100,VALID,-0.101885,VALID,20.2444,VALID,214,VALID,0,
2008-05-25, 01:31:00,VALID,914.973,VALID,0,VALID,100,VALID,-0.101885,VALID,20.2414,VALID,214,VALID,0,
2008-05-25, 01:32:00,VALID,914.93,VALID,0,VALID,100,VALID,-0.101885,VALID,20.2217,VALID,214,VALID,0,
2008-05-25, 01:33:00,VALID,914.918,VALID,0,VALID,100,VALID,-0.101885,VALID,20.225,VALID,214,VALID,0,
2008-05-25, 01:34:00,VALID,914.896,VALID,0,VALID,100,VALID,-0.0849042,VALID,20.2282,VALID,214,VALID,0,
2008-05-25, 01:35:00,VALID,914.872,VALID,0,VALID,100,VALID,-0.101885,VALID,20.2122,VALID,214,VALID,0,
2008-05-25, 01:36:00,VALID,914.855,VALID,0,VALID,100,VALID,-0.101885,VALID,20.1928,VALID,214,VALID,0,
2008-05-25, 01:37:00,VALID,914.838,VALID,0,VALID,100,VALID,-0.0679233,VALID,20.203,VALID,214,VALID,0,
2008-05-25, 01:38:00,VALID,914.806,VALID,0,VALID,100,VALID,-0.0509425,VALID,20.2115,VALID,214,VALID,0,
2008-05-25, 01:39:00,VALID,914.794,VALID,0,VALID,100,VALID,0,VALID,20.1977,VALID,214,VALID,0,
2008-05-25, 01:40:00,VALID,914.756,VALID,0,VALID,100,VALID,0.0169808,VALID,20.198,VALID,214,VALID,0,
2008-05-25, 01:41:00,VALID,914.716,VALID,0,VALID,100,VALID,0.0169808,VALID,20.2075,VALID,214,VALID,0,
2008-05-25, 01:42:00,VALID,914.688,VALID,0,VALID,100,VALID,0.0339617,VALID,20.1947,VALID,214,VALID,0,
2008-05-25, 01:43:00,VALID,914.669,VALID,0,VALID,100,VALID,0.0169808,VALID,20.2045,VALID,214,VALID,0,
2008-05-25, 01:44:00,VALID,914.674,VALID,0,VALID,100,VALID,-0.0169808,VALID,20.2242,VALID,214,VALID,0,
2008-05-25, 01:45:00,VALID,914.695,VALID,0,VALID,100,VALID,0.0169808,VALID,20.2374,VALID,214,VALID,0,
2008-05-25, 01:46:00,VALID,914.716,VALID,0,VALID,100,VALID,0.0509425,VALID,20.2337,VALID,214,VALID,0,
2008-05-25, 01:47:00,VALID,914.713,VALID,0,VALID,100,VALID,0.0339617,VALID,20.2364,VALID,214,VALID,0,
2008-05-25, 01:48:00,VALID,914.704,VALID,0,VALID,100,VALID,0,VALID,20.2494,VALID,214,VALID,0,
2008-05-25, 01:49:00,VALID,914.706,VALID,0,VALID,100,VALID,0.0169808,VALID,20.2691,VALID,214,VALID,0,
2008-05-25, 01:50:00,VALID,914.699,VALID,0,VALID,100,VALID,0.0509425,VALID,20.2718,VALID,214,VALID,0,
2008-05-25, 01:51:00,VALID,914.71,VALID,0,VALID,100,VALID,0.0509425,VALID,20.2718,VALID,214,VALID,0,
2008-05-25, 01:52:00,VALID,914.693,VALID,0,VALID,100,VALID,0.0679233,VALID,20.2591,VALID,110,VALID,0,
2008-05-25, 01:53:00,VALID,914.696,VALID,0,VALID,100,VALID,-0.0679233,VALID,20.2212,VALID,24,VALID,0,
2008-05-25, 01:54:00,VALID,914.708,VALID,0,VALID,100,VALID,-0.0679233,VALID,20.2093,VALID,23,VALID,0,
2008-05-25, 01:55:00,VALID,914.714,VALID,0,VALID,100,VALID,-0.101885,VALID,20.1638,VALID,23,VALID,0,
2008-05-25, 01:56:00,VALID,914.719,VALID,0,VALID,100,VALID,-0.101885,VALID,20.1349,VALID,23,VALID,0,
2008-05-25, 01:57:00,VALID,914.722,VALID,0,VALID,100,VALID,-0.101885,VALID,20.1181,VALID,22,VALID,0,
2008-05-25, 01:58:00,VALID,914.727,VALID,0,VALID,100,VALID,-0.0849042,VALID,20.1279,VALID,22,VALID,0,
2008-05-25, 01:59:00,VALID,914.712,VALID,0,VALID,100,VALID,-0.101885,VALID,20.1344,VALID,22,VALID,0,
2008-05-25, 02:00:00,VALID,914.698,VALID,0,VALID,100,VALID,-0.101885,VALID,20.1578,VALID,22,VALID,0,
2008-05-25, 02:01:00,VALID,914.681,VALID,0,VALID,100,VALID,-0.0849042,VALID,20.1573,VALID,11,VALID,0.050071,
2008-05-25, 02:02:00,VALID,914.685,VALID,0,VALID,100,VALID,-0.101885,VALID,20.1541,VALID,10,VALID,0,
2008-05-25, 02:03:00,VALID,914.696,VALID,0,VALID,100,VALID,-0.118866,VALID,20.1771,VALID,10,VALID,0,
2008-05-25, 02:04:00,VALID,914.706,VALID,0,VALID,100,VALID,-0.0679233,VALID,20.2025,VALID,15,VALID,0,
2008-05-25, 02:05:00,VALID,914.729,VALID,0,VALID,100,VALID,-0.101885,VALID,20.2165,VALID,22,VALID,0,
2008-05-25, 02:06:00,VALID,914.744,VALID,0,VALID,100,VALID,-0.101885,VALID,20.223,VALID,22,VALID,0,
2008-05-25, 02:07:00,VALID,914.752,VALID,0,VALID,100,VALID,-0.101885,VALID,20.2192,VALID,22,VALID,0,
2008-05-25, 02:08:00,VALID,914.74,VALID,0,VALID,100,VALID,-0.0339617,VALID,20.2374,VALID,332,VALID,0,
2008-05-25, 02:09:00,VALID,914.748,VALID,0,VALID,100,VALID,0,VALID,20.2439,VALID,316,VALID,0,
2008-05-25, 02:10:00,VALID,914.749,VALID,0,VALID,100,VALID,0,VALID,20.2434,VALID,316,VALID,0,
2008-05-25, 02:11:00,VALID,914.758,VALID,0,VALID,100,VALID,0,VALID,20.2664,VALID,316,VALID,0,
2008-05-25, 02:12:00,VALID,914.764,VALID,0,VALID,100,VALID,-0.0169808,VALID,20.2659,VALID,316,VALID,0,
2008-05-25, 02:13:00,VALID,914.786,VALID,0,VALID,100,VALID,0,VALID,20.2656,VALID,316,VALID,0,
2008-05-25, 02:14:00,VALID,914.788,VALID,0,VALID,100,VALID,0.0339617,VALID,20.2594,VALID,316,VALID,0,
2008-05-25, 02:15:00,VALID,914.797,VALID,0,VALID,100,VALID,0,VALID,20.2569,VALID,316,VALID,0,
2008-05-25, 02:16:00,VALID,914.799,VALID,0,VALID,100,VALID,0,VALID,20.2464,VALID,316,VALID,0,
2008-05-25, 02:17:00,VALID,914.793,VALID,0,VALID,100,VALID,0,VALID,20.2499,VALID,316,VALID,0,
2008-05-25, 02:18:00,VALID,914.78,VALID,0,VALID,100,VALID,-0.0169808,VALID,20.2537,VALID,316,VALID,0,
2008-05-25, 02:19:00,VALID,914.767,VALID,0,VALID,100,VALID,-0.0169808,VALID,20.2696,VALID,316,VALID,0,
2008-05-25, 02:20:00,VALID,914.749,VALID,0,VALID,100,VALID,0,VALID,20.2824,VALID,316,VALID,0,
2008-05-25, 02:21:00,VALID,914.741,VALID,0,VALID,100,VALID,0,VALID,20.3126,VALID,316,VALID,0,
2008-05-25, 02:22:00,VALID,914.741,VALID,0,VALID,100,VALID,0,VALID,20.3118,VALID,316,VALID,0,
2008-05-25, 02:23:00,VALID,914.727,VALID,0,VALID,100,VALID,0.0169808,VALID,20.3186,VALID,316,VALID,0,
2008-05-25, 02:24:00,VALID,914.715,VALID,0,VALID,100,VALID,0,VALID,20.3121,VALID,316,VALID,0,
2008-05-25, 02:25:00,VALID,914.697,VALID,0,VALID,100,VALID,0,VALID,20.3016,VALID,316,VALID,0,
2008-05-25, 02:26:00,VALID,914.665,VALID,0,VALID,100,VALID,0.0339617,VALID,20.2983,VALID,316,VALID,0,
2008-05-25, 02:27:00,VALID,914.641,VALID,0,VALID,100,VALID,0.0169808,VALID,20.2894,VALID,316,VALID,0,
2008-05-25, 02:28:00,VALID,914.621,VALID,0,VALID,100,VALID,0.0169808,VALID,20.3021,VALID,316,VALID,0,
2008-05-25, 02:29:00,VALID,914.615,VALID,0,VALID,100,VALID,0.0169808,VALID,20.3053,VALID,325,VALID,0,
2008-05-25, 02:30:00,VALID,914.595,VALID,0,VALID,100,VALID,0,VALID,20.3051,VALID,360,VALID,0.0902158,
2008-05-25, 02:31:00,VALID,914.582,VALID,0,VALID,100,VALID,0,VALID,20.3151,VALID,1,VALID,0,
2008-05-25, 02:32:00,VALID,914.561,VALID,0,VALID,100,VALID,-0.0339617,VALID,20.335,VALID,1,VALID,0,
2008-05-25, 02:33:00,VALID,914.539,VALID,0,VALID,100,VALID,0,VALID,20.3345,VALID,1,VALID,0,
2008-05-25, 02:34:00,VALID,914.513,VALID,0,VALID,100,VALID,0.0169808,VALID,20.3313,VALID,355,VALID,0,
2008-05-25, 02:35:00,VALID,914.489,VALID,0,VALID,100,VALID,0.0339617,VALID,20.3083,VALID,311,VALID,0,
2008-05-25, 02:36:00,VALID,914.465,VALID,0,VALID,100,VALID,0.0169808,VALID,20.2856,VALID,311,VALID,0,
2008-05-25, 02:37:00,VALID,914.441,VALID,0,VALID,100,VALID,0.0509425,VALID,20.2656,VALID,311,VALID,0,
2008-05-25, 02:38:00,VALID,914.39,VALID,0,VALID,100,VALID,-0.0169808,VALID,20.2831,VALID,311,VALID,0,
2008-05-25, 02:39:00,VALID,914.359,VALID,0,VALID,100,VALID,-0.0339617,VALID,20.2899,VALID,311,VALID,0,
2008-05-25, 02:40:00,VALID,914.324,VALID,0,VALID,100,VALID,-0.0169808,VALID,20.2726,VALID,311,VALID,0,
2008-05-25, 02:41:00,VALID,914.307,VALID,0,VALID,100,VALID,-0.0339617,VALID,20.2899,VALID,307,VALID,0,
2008-05-25, 02:42:00,VALID,914.288,VALID,0,VALID,100,VALID,-0.0169808,VALID,20.2764,VALID,287,VALID,0.000355114,
2008-05-25, 02:43:00,VALID,914.277,VALID,0,VALID,100,VALID,0,VALID,20.2569,VALID,173,VALID,0.383523,
2008-05-25, 02:44:00,VALID,914.262,VALID,0,VALID,100,VALID,-0.0169808,VALID,20.2477,VALID,181,VALID,0.0337936,
2008-05-25, 02:45:00,VALID,914.263,VALID,0,VALID,100,VALID,-0.0339617,VALID,20.2247,VALID,181,VALID,0,
2008-05-25, 02:46:00,VALID,914.238,VALID,0,VALID,100,VALID,-0.0169808,VALID,20.2315,VALID,181,VALID,0,
2008-05-25, 02:47:00,VALID,914.231,VALID,0,VALID,100,VALID,-0.0169808,VALID,20.2212,VALID,181,VALID,0,
2008-05-25, 02:48:00,VALID,914.24,VALID,0,VALID,100,VALID,0,VALID,20.218,VALID,158,VALID,0,
2008-05-25, 02:49:00,VALID,914.237,VALID,0,VALID,100,VALID,0,VALID,20.2242,VALID,137,VALID,0,
2008-05-25, 02:50:00,VALID,914.263,VALID,0,VALID,100,VALID,0,VALID,20.2115,VALID,127,VALID,0,
2008-05-25, 02:51:00,VALID,914.268,VALID,0,VALID,100,VALID,0,VALID,20.1823,VALID,115,VALID,0,
2008-05-25, 02:52:00,VALID,914.283,VALID,0,VALID,100,VALID,0,VALID,20.172,VALID,105,VALID,0,
2008-05-25, 02:53:00,VALID,914.288,VALID,0,VALID,100,VALID,0,VALID,20.1758,VALID,113,VALID,0,
2008-05-25, 02:54:00,VALID,914.277,VALID,0,VALID,100,VALID,-0.0169808,VALID,20.1598,VALID,120,VALID,0,
2008-05-25, 02:55:00,VALID,914.27,VALID,0,VALID,100,VALID,-0.0679233,VALID,20.1531,VALID,129,VALID,0.416903,
2008-05-25, 02:56:00,VALID,914.273,VALID,0,VALID,100,VALID,0,VALID,20.1533,VALID,138,VALID,0.0472301,
2008-05-25, 02:57:00,VALID,914.271,VALID,0,VALID,100,VALID,-0.0169808,VALID,20.1695,VALID,136,VALID,0.034157,
2008-05-25, 02:58:00,VALID,914.267,VALID,0,VALID,100,VALID,-0.0339617,VALID,20.1666,VALID,129,VALID,0.000186012,
2008-05-25, 02:59:00,VALID,914.26,VALID,0,VALID,100,VALID,-0.0339617,VALID,20.1658,VALID,130,VALID,0.816964,
2008-05-25, 03:00:00,VALID,914.242,VALID,0,VALID,100,VALID,0,VALID,20.1533,VALID,100,VALID,0.888889,
2008-05-25, 03:01:00,VALID,914.233,VALID,0,VALID,100,VALID,0,VALID,20.1503,VALID,96,VALID,0.539463,
2008-05-25, 03:02:00,VALID,914.204,VALID,0,VALID,100,VALID,-0.0169808,VALID,20.1366,VALID,117,VALID,0.862165,
2008-05-25, 03:03:00,VALID,914.17,VALID,0,VALID,100,VALID,-0.0169808,VALID,20.1336,VALID,113,VALID,0.435785,
2008-05-25, 03:04:00,VALID,914.149,VALID,0,VALID,100,VALID,0,VALID,20.1111,VALID,100,VALID,0.846294,
2008-05-25, 03:05:00,VALID,914.106,VALID,0,VALID,100,VALID,0,VALID,20.0909,VALID,106,VALID,0.0368304,
2008-05-25, 03:06:00,VALID,914.11,VALID,0,VALID,100,VALID,-0.0339617,VALID,20.1017,VALID,111,VALID,0.304874,
2008-05-25, 03:07:00,VALID,914.123,VALID,0,VALID,100,VALID,-0.0339617,VALID,20.0917,VALID,109,VALID,0.0648082,
2008-05-25, 03:08:00,VALID,914.136,VALID,0,VALID,100,VALID,-0.0339617,VALID,20.0982,VALID,93,VALID,0.0375381,
2008-05-25, 03:09:00,VALID,914.147,VALID,0,VALID,100,VALID,-0.0169808,VALID,20.0941,VALID,96,VALID,0,
2008-05-25, 03:10:00,VALID,914.159,VALID,0,VALID,100,VALID,0,VALID,20.0879,VALID,97,VALID,0.362326,
2008-05-25, 03:11:00,VALID,914.162,VALID,0,VALID,100,VALID,-0.0339617,VALID,20.1009,VALID,99,VALID,0.791726,
2008-05-25, 03:12:00,VALID,914.166,VALID,0,VALID,100,VALID,0,VALID,20.1014,VALID,115,VALID,0.987645,
2008-05-25, 03:13:00,VALID,914.167,VALID,0,VALID,100,VALID,-0.0169808,VALID,20.0844,VALID,121,VALID,1.26786,
2008-05-25, 03:14:00,VALID,914.163,VALID,0,VALID,100,VALID,-0.0169808,VALID,20.0752,VALID,120,VALID,0.47603,
2008-05-25, 03:15:00,VALID,914.177,VALID,0,VALID,100,VALID,0,VALID,20.0887,VALID,123,VALID,1.1981,
2008-05-25, 03:16:00,VALID,914.195,VALID,0,VALID,100,VALID,0,VALID,20.0814,VALID,112,VALID,1.20666,
2008-05-25, 03:17:00,VALID,914.224,VALID,0,VALID,100,VALID,0,VALID,20.0879,VALID,120,VALID,1.2391,
2008-05-25, 03:18:00,VALID,914.246,VALID,0,VALID,100,VALID,-0.0169808,VALID,20.0976,VALID,119,VALID,1.32504,
2008-05-25, 03:19:00,VALID,914.286,VALID,0,VALID,100,VALID,-0.0509425,VALID,20.1014,VALID,126,VALID,1.13635,
2008-05-25, 03:20:00,VALID,914.304,VALID,0,VALID,100,VALID,-0.0169808,VALID,20.0944,VALID,131,VALID,1.01916,
2008-05-25, 03:21:00,VALID,914.34,VALID,0,VALID,100,VALID,-0.0339617,VALID,20.1079,VALID,127,VALID,1.07604,
2008-05-25, 03:22:00,VALID,914.354,VALID,0,VALID,100,VALID,0,VALID,20.1109,VALID,134,VALID,1.52344,
2008-05-25, 03:23:00,VALID,914.365,VALID,0,VALID,100,VALID,0,VALID,20.1014,VALID,133,VALID,1.36509,
2008-05-25, 03:24:00,VALID,914.385,VALID,0,VALID,100,VALID,-0.0339617,VALID,20.0944,VALID,128,VALID,1.92169,
2008-05-25, 03:25:00,VALID,914.411,VALID,0,VALID,100,VALID,-0.0169808,VALID,20.1017,VALID,112,VALID,1.48647,
2008-05-25, 03:26:00,VALID,914.407,VALID,0,VALID,100,VALID,0,VALID,20.1039,VALID,142,VALID,1.99657,
2008-05-25, 03:27:00,VALID,914.418,VALID,0,VALID,100,VALID,0,VALID,20.1044,VALID,123,VALID,2.33061,
2008-05-25, 03:28:00,VALID,914.402,VALID,0,VALID,100,VALID,0,VALID,20.1141,VALID,134,VALID,1.53234,
2008-05-25, 03:29:00,VALID,914.387,VALID,0,VALID,100,VALID,0,VALID,20.1136,VALID,147,VALID,1.98658,
2008-05-25, 03:30:00,VALID,914.388,VALID,0,VALID,100,VALID,-0.0339617,VALID,20.1269,VALID,137,VALID,2.05323,
2008-05-25, 03:31:00,VALID,914.378,VALID,0,VALID,100,VALID,0,VALID,20.1363,VALID,123,VALID,3.12336,
2008-05-25, 03:32:00,VALID,914.393,VALID,0,VALID,100,VALID,0,VALID,20.179,VALID,153,VALID,2.15952,
2008-05-25, 03:33:00,VALID,914.393,VALID,0,VALID,100,VALID,-0.0339617,VALID,20.2017,VALID,148,VALID,2.2625,
2008-05-25, 03:34:00,VALID,914.406,VALID,0,VALID,100,VALID,-0.0169808,VALID,20.2215,VALID,150,VALID,2.32207,
2008-05-25, 03:35:00,VALID,914.378,VALID,0,VALID,100,VALID,0,VALID,20.2239,VALID,156,VALID,1.57656,
2008-05-25, 03:36:00,VALID,914.387,VALID,0,VALID,100,VALID,0,VALID,20.2334,VALID,156,VALID,2.12351,
2008-05-25, 03:37:00,VALID,914.392,VALID,0,VALID,100,VALID,-0.0339617,VALID,20.2507,VALID,160,VALID,2.03533,
2008-05-25, 03:38:00,VALID,914.395,VALID,0,VALID,100,VALID,0,VALID,20.2701,VALID,149,VALID,2.39408,
2008-05-25, 03:39:00,VALID,914.383,VALID,0,VALID,100,VALID,-0.0169808,VALID,20.2799,VALID,138,VALID,2.64776,
2008-05-25, 03:40:00,VALID,914.391,VALID,0,VALID,100,VALID,-0.0169808,VALID,20.3086,VALID,159,VALID,2.07564,
2008-05-25, 03:41:00,VALID,914.405,VALID,0,VALID,100,VALID,0,VALID,20.3248,VALID,132,VALID,2.75664,
2008-05-25, 03:42:00,VALID,914.41,VALID,0,VALID,100,VALID,0.0339617,VALID,20.3475,VALID,155,VALID,1.67133,
2008-05-25, 03:43:00,VALID,914.426,VALID,0,VALID,100,VALID,0,VALID,20.3707,VALID,158,VALID,1.76823,
2008-05-25, 03:44:00,VALID,914.442,VALID,0,VALID,100,VALID,0,VALID,20.3702,VALID,162,VALID,2.16387,
2008-05-25, 03:45:00,VALID,914.44,VALID,0,VALID,100,VALID,0,VALID,20.36,VALID,172,VALID,1.99182,
2008-05-25, 03:46:00,VALID,914.437,VALID,0,VALID,100,VALID,0.0169808,VALID,20.3632,VALID,182,VALID,1.04414,
2008-05-25, 03:47:00,VALID,914.467,VALID,0,VALID,100,VALID,0.0339617,VALID,20.3665,VALID,179,VALID,1.18169,
2008-05-25, 03:48:00,VALID,914.477,VALID,0,VALID,100,VALID,0.0169808,VALID,20.3662,VALID,185,VALID,1.72529,
2008-05-25, 03:49:00,VALID,914.522,VALID,0,VALID,100,VALID,0,VALID,20.3732,VALID,177,VALID,1.75836,
2008-05-25, 03:50:00,VALID,914.548,VALID,0,VALID,100,VALID,0.0169808,VALID,20.3835,VALID,170,VALID,1.30283,
2008-05-25, 03:51:00,VALID,914.556,VALID,0,VALID,100,VALID,0,VALID,20.3959,VALID,172,VALID,1.53106,